Flag for Germany Weather past 2 weeks in Esslingen, Baden-Württemberg, Germany

Now
48 °F

Passing clouds.


Feels Like: 45 °F
Forecast: 41 / 67 °F
Wind: 7 mph from Northeast

Location: Stuttgart-Echterdingen


UV Index: 3 (Moderate)

Visibility: N/A


Pressure: 29.77 "Hg

Humidity: 82%

Dew point: 43 °F

Location of EsslingenLocation

Historic Weather in Esslingen

°F

Esslingen temperature yesterday

Maximum temperature yesterday: 57 °F (at 4:50 PM)
Minimum temperature yesterday: 37 °F (at 12:20 AM)
Average temperature yesterday: 46 °F

Past Weeks' High & Low Weather Summary

 TemperatureHumidityPressure
High70 °F (Apr 7, 2:20 PM)100% (Apr 19, 3:50 AM)30.36 "Hg (Apr 19, 3:50 AM)
Low32 °F (Apr 16, 6:20 AM)21% (Apr 17, 5:20 PM)29.77 "Hg (Apr 19, 5:50 PM)
Average51 °F64%30.08 "Hg
* Reported Apr 5 12:20 AM — Apr 20 12:20 AM, Esslingen, Weather by CustomWeather, © 2014

Note: Actual official high and low records may vary slightly from our data, if they occured in-between our weather recording intervals... More about our weather records

Advertising

Historic Weather Conditions — Data for Previous 24 hours

 ConditionsComfort  
Time TempWeatherWind HumidityBarometerVisibility
12:20 AM
Apr 20
50 °FPassing clouds.6 mph82%29.77 "HgN/A
11:50 PM
Apr 19
50 °FPassing clouds.7 mph82%29.77 "HgN/A
11:20 PM52 °FPassing clouds.9 mph82%29.77 "HgN/A
10:50 PM50 °FPassing clouds.7 mph88%29.77 "HgN/A
10:20 PM52 °FPassing clouds.5 mph77%29.77 "HgN/A
9:50 PM52 °FPassing clouds.3 mph77%29.80 "HgN/A
9:20 PM52 °FPassing clouds.3 mph77%29.80 "HgN/A
8:50 PM54 °FScattered clouds.2 mph72%29.80 "HgN/A
8:20 PM55 °FPartly sunny.2 mph67%29.77 "HgN/A
7:50 PM57 °FPartly sunny.2 mph63%29.77 "HgN/A
7:20 PM57 °FPartly sunny.1 mph63%29.77 "HgN/A
6:50 PM57 °FSunny.1 mph59%29.77 "Hg10 mi
6:20 PM57 °FSunny.3 mph63%29.77 "Hg10 mi
5:50 PM57 °FPartly sunny.2 mph59%29.77 "HgN/A
5:20 PM57 °FPartly sunny.1 mph59%29.80 "HgN/A
4:50 PM57 °FPartly sunny.1 mph59%29.80 "HgN/A
4:20 PM55 °FPartly sunny.1 mph63%29.80 "HgN/A
3:50 PM52 °FPartly sunny.6 mph72%29.80 "HgN/A
3:20 PM52 °FPartly sunny.7 mph72%29.83 "HgN/A
2:50 PM50 °FPartly sunny.7 mph71%29.83 "HgN/A
2:20 PM48 °FPartly sunny.9 mph76%29.86 "HgN/A
1:50 PM48 °FPartly sunny.10 mph71%29.86 "HgN/A
1:20 PM46 °FPartly sunny.10 mph76%29.86 "HgN/A
12:50 PM46 °FBroken clouds.7 mph76%29.89 "HgN/A
12:20 PM45 °FBroken clouds.13 mph81%29.89 "HgN/A
11:50 AM45 °FPartly sunny.12 mph81%29.89 "HgN/A
11:20 AM43 °FPartly sunny.9 mph87%29.89 "HgN/A
10:50 AM41 °FPartly sunny.10 mph87%29.89 "HgN/A
10:20 AM41 °FPartly sunny.9 mph87%29.89 "HgN/A
9:50 AM39 °FPartly sunny.9 mph93%29.89 "HgN/A
9:20 AM39 °FBroken clouds.9 mph93%29.89 "HgN/A
8:50 AM39 °FBroken clouds.8 mph93%29.89 "HgN/A
8:20 AM39 °FBroken clouds.8 mph93%29.89 "HgN/A
7:50 AM39 °FLight rain. Broken clouds.7 mph87%29.89 "HgN/A
7:20 AM39 °FLight rain. Passing clouds.7 mph93%29.92 "Hg6 mi
6:50 AM39 °FPassing clouds.7 mph93%29.89 "Hg4 mi
6:20 AM37 °FPartly cloudy.6 mph100%29.89 "Hg4 mi
5:50 AM37 °FFog.3 mph93%29.89 "Hg3 mi
5:20 AM37 °FFog.2 mph93%29.89 "Hg1 mi
4:50 AM37 °FFog.3 mph100%29.92 "Hg2 mi
4:20 AM37 °FFog.3 mph93%29.92 "Hg3 mi
3:50 AM37 °FFog.3 mph100%29.92 "Hg3 mi
3:20 AM37 °FPassing clouds.1 mph93%29.92 "HgN/A
2:50 AM37 °FPassing clouds.2 mph93%29.92 "HgN/A
2:20 AM37 °FPassing clouds.1 mph93%29.92 "HgN/A
1:50 AM39 °FPassing clouds.2 mph87%29.92 "HgN/A
1:20 AM37 °FPassing clouds.2 mph93%29.95 "HgN/A
Weather by CustomWeather, © 2014

See weather overview